Location: Unspecified
(0.0000°N, 0.0000°E)
Time: 02:35:47
(UTC+00:00)

STARLINK-1973 - Pass Details

Date: 24 February 2021
Orbit: 316 x 317 km, 53.1° (Epoch: 23 February)

Event Time Altitude Azimuth Distance (km) Brightness Sun altitude
Exits shadow 05:19:23 - 349° (N) 1,640 5.8 -13.3°
Reaches altitude 10° 05:20:31 10° 359° (N) 1,220 5.3 -13.0°
Maximum altitude 05:22:47 23° 56° (NE) 728 4.8 -12.4°
Drops below altitude 10° 05:25:04 10° 113° (ESE) 1,229 6.8 -11.9°
Sets 05:27:15 0° 128° (SE) 2,065 7.8 -11.3°
